Hourly Data Report for March 11, 2018

MIRAMICHI RCS
NEW BRUNSWICK

47°00'34.000" N
65°27'54.000" W
33.00 m
8100989
71744
ACQ

Download Data

Hourly Data (March 2018)
Hourly Data Report for March 11, 2018
TIME
LST
Temp Definition
°C
Dew Point Definition
°C
Rel Hum Definition
%
Precip. Amount Definition
mm

Wind Dir Definition
10's deg

Wind Spd Definition
km/h
Visibility Definition
km
Stn Press Definition
kPa
Hmdx Definition


Wind Chill Definition


Weather Definition


00:00 -1.0 -1.6 96 0.2 3 11   99.73   -5 LegendNANA
01:00 -1.0 -1.5 96 0.4 3 12   99.78   -5 LegendNANA
02:00 -1.1 -1.9 94 0.2 3 15   99.83   -6 LegendNANA
03:00 -1.4 -2.3 94 0.0 1 10   99.83   -5 LegendNANA
04:00 -1.5 -2.4 93 0.0 1 10   99.89   -5 LegendNANA
05:00 -1.4 -2.4 93 0.0 35 9   99.95   -5 LegendNANA
06:00 -1.4 -2.3 94 0.0 36 7   99.99   -4 LegendNANA
07:00 -1.4 -2.1 95 0.5 34 7   100.08   -4 LegendNANA
08:00 -1.3 -2.0 95 0.4 34 7   100.16   -4 LegendNANA
09:00 -0.8 -1.8 93 0.4 35 10   100.21   -4 LegendNANA
10:00 -0.2 -1.5 91 1.1 1 10   100.26   -4 LegendNANA
11:00 0.0 -1.4 90 0.0 36 11   100.30   -4 LegendNANA
12:00 0.1 -1.0 93 0.3 36 10   100.35     LegendNANA
13:00 0.4 -0.7 92 0.2 35 8   100.37     LegendNANA
14:00 0.7 -0.7 90 0.3 1 12   100.41     LegendNANA
15:00 0.6 -0.8 90 0.0 2 13   100.52     LegendNANA
16:00 0.6 -0.6 91 0.2 2 13   100.59     LegendNANA
17:00 0.5 -1.0 90 0.0 3 12   100.68     LegendNANA
18:00 0.2 -1.1 91 0.0 1 7   100.77     LegendNANA
19:00 0.1 -1.7 88 0.0 1 5   100.86     LegendNANA
20:00 0.1 -1.6 89 0.0 1 6   100.94     LegendNANA
21:00 -0.6 -2.5 87 0.0 2 7   100.99   -3 LegendNANA
22:00 -0.5 -2.1 89 0.0 35 5   101.02   -2 LegendNANA
23:00 -0.3 -1.9 89 0.0 34 4   101.06   -2 LegendNANA

Notes on Data Quality.

Legend

  • E = Estimated
  • M = Missing
  • NA = Not Available*
  • [empty] = Indicates an unobserved value
Date modified: